www.pogodaiklimat.ru

Погода и климат >> Архив погоды >> Оман >> Эль-Бурайми


ПОГОДА в Эль-Бурайми

  • Прогноз погоды в Эль-Бурайми
  • Монитор погоды в Эль-Бурайми

АРХИВ ПОГОДЫ в Эль-Бурайми

Время (UTC), дата Ветер
(напр.,м/с)
 
Видим.   Явления Облачность Т
(С)
Тd
(С)
f
(%)
Тe
(С)
Тes
(С)
Комфортность P
(гПа)
Po
(гПа)
Тmin
(С)
Tmax
(С)
R
(мм)
R24
(мм)
S
(см)
03 17.02 ЮВ 6 н/о н/о +20.1 +13.2 64 +22 +22 комфорт 1009.0 967.4
06 17.02 Ю 8 н/о н/о +22.5 +14.8 62 +26 +26 жарко 1019.9 978.2 +19.6
09 17.02 Ю 5 н/о н/о +25.0 +14.1 51 +27 +27 жарко 1023.6 982.1
12 17.02 С 3 н/о н/о +23.7 +14.0 55 +26 +26 жарко 1010.3 969.2
15 17.02 СЗ 4 н/о н/о +22.1 +13.8 59 +25 +25 комфорт 1002.5 961.5
18 17.02 СЗ 5 н/о н/о +18.0 +15.7 86 +18 +18 1000.0 958.6 +26.4 2
21 17.02 СВ 1 н/о н/о +17.6 +15.5 87 +19 +19 1007.0 965.2
00 18.02 СЗ 4 н/о н/о +16.4 +13.0 80 +16 +16 1009.0 967.0 5
03 18.02 СЗ 3 н/о н/о +15.2 +12.0 81 +15 +15 1008.2 966.0
06 18.02 СЗ 4 н/о н/о +16.8 +11.9 73 +16 +16 1018.6 976.2 +14.9
09 18.02 СЗ 4 н/о н/о +19.6 +10.2 55 +21 +21 комфорт 1024.6 982.4
12 18.02 З 4 н/о н/о +21.8 +5.6 35 +22 +22 комфорт 1020.5 978.7
15 18.02 З 5 н/о н/о +20.2 +4.8 36 +21 +21 комфорт 1005.9 964.5
18 18.02 СЗ 4 н/о н/о +17.0 +9.3 60 +17 +17 1001.3 959.6 +22.2
21 18.02 СЗ 2 н/о н/о +15.9 +10.4 70 +16 +16 1002.6 960.7
00 19.02 СЗ 3 н/о н/о +14.8 +10.4 75 +14 +14 1004.1 962.1
03 19.02 С 1 н/о н/о +14.3 +10.1 76 +15 +15 1006.1 963.9
06 19.02 В 2 н/о н/о +19.2 +6.2 43 +21 +21 комфорт 1025.7 983.3 +14.3
09 19.02 З 3 н/о н/о +25.4 -6.2 12 +23 +23 комфорт 1033.9 991.9
12 19.02 З 4 н/о н/о +23.8 +1.1 22 +23 +23 комфорт 1008.0 966.9
15 19.02 СЗ 4 н/о н/о +21.4 +6.1 37 +22 +22 комфорт 998.9 957.9
18 19.02 З 3 н/о н/о +20.4 +6.1 39 +22 +22 комфорт 1002.1 960.8 +25.6
21 19.02 СЗ 5 н/о н/о +17.0 +11.5 70 +16 +16 1001.9 960.2
00 20.02 СЗ 4 н/о н/о +15.9 +10.5 70 +15 +15 1004.9 962.9
03 20.02 штиль 0 н/о н/о +13.8 +10.0 78 +13 +13 1004.4 962.2
06 20.02 СЗ 7 н/о н/о +17.3 +9.1 59 +16 +16 1021.8 979.3 +13.7
09 20.02 СЗ 7 н/о н/о +20.3 +5.0 37 +21 +21 комфорт 1027.7 985.3
12 20.02 СЗ 8 н/о н/о +21.1 +3.1 31 +21 +21 комфорт 1019.4 977.5
15 20.02 СЗ 6 н/о н/о +18.1 +5.3 43 +18 +18 1006.7 964.9
18 20.02 С 2 н/о н/о +15.4 +7.8 60 +15 +15 1006.2 964.1 +21.8
21 20.02 С 1 н/о н/о +13.8 +8.0 68 +14 +14 1008.3 965.9
00 21.02 СЗ 2 н/о н/о +13.2 +7.5 68 +13 +13 1011.2 968.5
03 21.02 н/о н/о +12.3 +7.5 72 1014.9 972.0
06 21.02 СЗ 4 н/о н/о +16.0 +7.1 55 +15 +15 1030.1 987.0 +12.3
09 21.02 СЗ 2 н/о н/о +20.9 +4.3 34 +22 +22 комфорт 1039.2 996.4
12 21.02 З 4 н/о н/о +23.2 +0.9 23 +22 +22 комфорт 1027.2 985.2
15 21.02 СЗ 4 н/о н/о +21.3 +1.3 27 +21 +21 комфорт 1011.5 970.0
18 21.02 СЗ 4 н/о н/о +16.9 +8.9 59 +16 +16 1006.0 964.2 +23.6
21 21.02 СЗ 4 н/о н/о +15.1 +9.6 70 +14 +14 1008.1 965.9
00 22.02 СЗ 3 н/о н/о +14.4 +10.0 75 +13 +13 1012.0 969.5
03 22.02 ЮЗ 2 н/о н/о +13.8 +9.9 77 +13 +13 1014.7 972.0
06 22.02 ЮЗ 3 н/о н/о +18.6 +9.3 55 +19 +19 1031.8 989.1 +13.6
09 22.02 Ю 5 н/о н/о +23.5 +4.3 29 +23 +23 комфорт 1035.4 993.2
12 22.02 ЮЗ 2 н/о н/о +23.6 -0.6 20 +22 +22 комфорт 1025.1 983.3
15 22.02 СЗ 4 н/о н/о +22.6 +0.7 23 +22 +22 комфорт 1008.9 967.6
18 22.02 СЗ 3 н/о н/о +20.9 +2.3 29 +22 +22 комфорт 1007.4 966.0 +24.5
21 22.02 штиль 0 н/о н/о +18.6 +4.9 40 +19 +19 1007.2 965.4
00 23.02 С 1 н/о н/о +18.5 +10.4 59 +20 +20 1011.6 969.7
03 23.02 ЮВ 3 н/о н/о +19.0 +13.1 69 +20 +20 1014.0 972.2
06 23.02 Ю 4 н/о н/о +21.9 +10.7 49 +24 +24 комфорт 1028.5 986.4 +18.0
09 23.02 Ю 5 н/о н/о +23.7 +10.6 44 +25 +25 комфорт 1025.9 984.1
12 23.02 В 2 н/о н/о +23.7 +7.3 35 +24 +24 комфорт 1021.4 979.8
15 23.02 Ю 4 н/о н/о +23.4 +4.3 29 +23 +23 комфорт 1009.5 968.3
18 23.02 ЮВ 2 н/о н/о +21.3 +6.0 37 +22 +22 комфорт 1007.0 965.6 +24.4
21 23.02 В 2 н/о н/о +20.1 +6.2 40 +21 +21 комфорт 1008.4 966.8
00 24.02 В 2 н/о н/о +19.5 +7.4 45 +21 +21 комфорт 1010.1 968.4

 

Местоположение метеостанции Эль-Бурайми (Оман): широта 24.23 долгота 55.78 высота над уровнем моря 299 м.

В архиве по умолчанию представлена погода в Эль-Бурайми за последнюю неделю. Архивные данные за месяц целиком и за предыдущие месяцы, начиная с января 2011 года, Вы можете получить, выбрав интересующий диапазон дат из раскрывающегося списка и нажав кнопку "Ввод!".


*Определитесь, кто Вы:
робот инопланетянин человек

Внимание! Время в таблицах - всемирное. Для получения местного времени необходимо прибавить поправку, которая равна 4 ч.

Смотрите также архив погоды в соседних городах и на ближайших метеорологических станциях:

Погода в Эль-Айне (ОАЭ) (19 км)
Погода в Кумейре (Оман) (54 км)
Погода в Сухаре (Оман) (90 км)
Погода в Аль-Мактум аэропорту (ОАЭ) (97 км)
Погода в Фуджейре (ОАЭ) (112 км)
Погода в Абу-Даби (ОАЭ) (117 км)
Погода в Ибри (Оман) (117 км)
Погода в Дубае (ОАЭ) (122 км)
Погода в Шардже (ОАЭ) (125 км)
Погода в Абу-Даби Батин аэропорту (ОАЭ) (136 км)

Пояснения к столбцам:

Ветер - указаны скорость ветра в м/с - средняя за 10 мин, порывы в срок и между сроками (в фигурных скобках) и направление, откуда дует ветер: С - северный, СВ - северо-восточный, В - восточный, ЮВ - юго-восточный, Ю - южный, ЮЗ - юго-западный, З - западный, СЗ - северо-западный.
Видимость - горизонтальная дальность видимости в метрах или километрах. При видимости от 1 до 10 км при отсутствии осадков обычно наблюдается дымка, при ухудшении видимости до 1 км и менее - туман. В сухую погоду видимость может ухудшаться дымом, пылью или мглою.
Явления - указаны атмосферные явления, наблюдавшиеся в срок или в последний час перед сроком; фигурными скобками обозначены явления, наблюдавшиеся между сроками (за 1-3 часа до срока); квадратными скобками обозначены град или гололедные отложения с указанием их диаметра в мм.
Облачность - указаны через наклонную черту общая и нижняя облачность в баллах и высота нижней границы облаков в метрах; квадратными скобками обозначены формы облаков: Ci - перистые, Cs - перисто-слоистые, Cc - перисто-кучевые, Ac - высококучевые, As - высокослоистые, Sc - слоисто-кучевые, Ns - слоисто-дождевые, Cu - кучевые, Cb - кучево-дождевые. Подробнее классификацию облаков см. в Атласе облаков (PDF).
T - Температура воздуха - температура, измеренная на высоте 2 м над землей.
Td - Температура точки росы - температура, при понижении до которой содержащийся в воздухе водяной пар достигнет насыщения.
f - Относительная влажность воздуха - влажноcть воздуха, измеренная на высоте 2 м над землей.
Te - Эффективная температура - температура, которую ощущает одетый по сезону человек в тени. Характеристика душности погоды. При расчете учитывается влияние влажности воздуха и скорости ветра на теплоощущения человека.
Tes - Эффективная температура на солнце - температура, которую ощущает человек, с поправкой на солнечный нагрев. Характеристика знойности погоды. Зависит от высоты солнца над горизонтом, облачности и скорости ветра. Ночью, в пасмурную погоду, а также при ветре 12 м/с и более поправка равна нулю.
P - Атмосферное давление - приведенное к уровню моря атмосферное давление.
Po - Атмосферное давление - измеренное на уровне метеостанции атмосферное давление.
Tmin - Минимальная температура - минимум температуры воздуха на высоте 2 м над землей.
Tmax - Максимальная температура - максимум температуры воздуха на высоте 2 м над землей.
R - Количество осадков - Количество выпавших осадков за период времени, мм. При наведении курсора мыши на число - период времени, за который выпало указанное количество осадков.
R24 - Количество осадков - Количество выпавших осадков за 24 часа, мм.
S - Снежный покров - Высота снежного покрова, см. При наведении курсора мыши на число - состояние снежного покрова и степень покрытия местности в баллах.